Weather in Kotzebue

United States     66°53′48″N   162°35′09″W
temp.,
°C
wind,
m/s
gust,
m/s
humid.,
%
clouds,
%
prec.,
mm/h
press.,
hPa
HPBL,
m
16 may, sun
sun1601:00−1nw35742 0.0 101082
04:00−3nw11814 0.0 101118
07:00−3nne01785 0.0 101249
10:000s11655 0.0 1013302
13:00+1wsw22645 0.0 1013458
16:00+2sw45675 0.0 1013590
19:00+3wsw346416 0.0 1013542
22:00+3sse12665 0.0 1013189
17 may, mon
mon1701:00−1ese23784 0.0 101448
04:00−2se11805 0.0 101416
07:00−2ese11795 0.0 101436
10:00+1se22694 0.0 1015245
13:00+2ssw22683 0.0 1015371
16:00+1wsw327319 0.0 1015367
19:00+1wsw337714 0.0 1015245
22:000wsw348213 0.0 1015145
18 may, tue
tue1801:00−2sw228811 0.0 101532
04:00−3wsw22875 0.0 101520
07:00−2sw11875 0.0 101642
10:000sw22805 0.0 1016204
13:00+1sw338216 0.0 1017285
16:00+1wsw558115 0.0 1018281
19:00+2wsw66745 0.0 1018343
22:00+1w56755 0.0 1018258
19 may, wed
wed1901:00−1w44834 0.0 101954
04:00−3w34884 0.0 102036
07:00−2w34854 0.0 102076
10:00+1w33712 0.0 1021226
13:00+1wsw44673 0.0 1020326
16:00+2wsw55673 0.0 1020368
19:00+2wsw45653 0.0 1020264
22:00+3wsw34642 0.0 1019304
20 may, thu
thu2001:00+1wnw33682 0.0 101918
04:00+1n22705 0.0 101812
07:00+1ene11747 0.0 101810
10:00+3e116885 0.0 1017151
13:00+4se1263100 0.0 1016331
16:00+4sw216220 0.0 1015410
19:00+4wsw3366100 0.0 1013194
22:00+6w4458100 0.0 1012108